GW0246 Weather Reports


time (UTC)temp
F
wind
direction
speed
knots
gust
knots
rain 1hr
in
rain 24hr
in
rain mn
in
humidity
%
barometer
mb
20260503193605 61 271 1.7 4.3 0.00 0.01 0.01 68 1014.4
20260503192917 61 276 1.7 5.2 0.00 0.01 0.01 69 1014.4
20260503191805 61 293 2.6 9.6 0.00 0.01 0.01 70 1014.4
20260503191117 61 293 1.7 9.6 0.00 0.01 0.01 69 1014.5
20260503190215 61 285 0.9 3.5 0.00 0.01 0.01 70 1014.6
20260503185616 62 229 0.9 3.5 0.00 0.01 0.01 69 1014.6
20260503184505 60 268 0.9 4.3 0.00 0.01 0.01 72 1014.6
20260503183816 60 277 0.0 4.3 0.00 0.01 0.01 72 1014.6
20260503182918 59 271 0.9 3.5 0.00 0.01 0.01 75 1014.6
20260503182015 58 300 0.9 4.3 0.00 0.01 0.01 80 1014.6
20260503180904 57 297 1.7 4.3 0.00 0.01 0.01 82 1014.6
20260503180215 57 303 1.7 4.3 0.00 0.01 0.01 82 1014.6
20260503175617 57 296 0.9 4.3 0.00 0.01 0.01 82 1014.7
20260503174504 59 236 0.9 3.5 0.00 0.01 0.01 79 1014.6
20260503173816 59 237 0.9 3.5 0.00 0.01 0.01 77 1014.6
20260503172705 59 204 0.9 4.3 0.00 0.01 0.01 80 1014.6
20260503172016 58 247 0.9 3.5 0.00 0.01 0.01 81 1014.6
20260503170905 58 230 0.9 2.6 0.00 0.01 0.01 80 1014.4
20260503160217 55 226 0.0 1.7 0.01 0.01 0.01 89 1014.3
20260503131116 53 106 0.0 2.6 0.00 0.00 0.00 90 1012.7
20260503120214 53 201 0.0 0.9 0.00 0.00 0.00 89 1012.4
20260503080905 55 216 0.0 3.5 0.00 0.00 0.00 84 1012.8
20260503072915 55 219 0.0 0.9 0.00 0.00 0.00 83 1013.0
20260503071805 55 180 0.0 1.7 0.00 0.00 0.00 83 1013.0
20260503070904 55 186 0.0 2.6 0.00 0.00 0.00 84 1013.0
20260503054717 55 261 0.0 0.9 0.00 0.00 0.00 83 1013.2
20260503053819 55 230 0.0 0.9 0.00 0.00 0.00 83 1013.2
20260503052916 55 237 0.0 0.9 0.00 0.00 0.00 83 1013.3
20260503052019 55 248 0.0 1.7 0.00 0.00 0.00 83 1013.4
20260503050904 55 231 0.0 0.9 0.00 0.00 0.00 83 1013.5
20260503050005 55 248 0.0 1.7 0.00 0.00 0.00 83 1013.4
20260503045405 55 264 0.0 1.7 0.00 0.00 0.00 83 1013.4
20260503044505 55 266 0.0 2.6 0.00 0.00 0.00 83 1013.4
20260503043604 55 268 0.0 0.9 0.00 0.00 0.00 83 1013.5
20260503042917 55 260 0.0 0.9 0.00 0.00 0.00 83 1013.4
20260503042014 55 259 0.0 2.6 0.00 0.00 0.00 83 1013.4
20260503041117 55 263 0.0 1.7 0.00 0.00 0.00 83 1013.3
20260503040219 55 261 0.0 1.7 0.00 0.00 0.00 83 1013.2
20260503035405 55 216 0.0 0.9 0.00 0.00 0.00 83 1013.0
20260503034718 55 267 0.0 2.6 0.00 0.00 0.00 83 1012.9
20260503033604 55 270 0.0 1.7 0.00 0.00 0.00 82 1012.8
20260503032705 55 272 0.0 2.6 0.00 0.00 0.00 82 1012.7
20260503031804 55 271 0.0 2.6 0.00 0.00 0.00 82 1012.6
20260503030905 56 277 0.0 1.7 0.00 0.00 0.00 81 1012.6
20260503030214 56 299 0.9 3.5 0.00 0.00 0.00 81 1012.6
20260503025404 56 276 0.0 5.2 0.00 0.00 0.00 81 1012.6
20260503024718 56 275 0.9 2.6 0.00 0.00 0.00 81 1012.6
20260503023605 56 270 0.9 3.5 0.00 0.00 0.00 81 1012.6
20260503022704 56 287 0.9 3.5 0.00 0.00 0.00 81 1012.5
20260503022015 56 279 0.9 4.3 0.00 0.00 0.00 80 1012.6
20260503020905 56 283 0.9 4.3 0.00 0.00 0.00 80 1012.5
20260503020215 56 286 0.9 4.3 0.00 0.00 0.00 80 1012.5
20260503015405 56 299 1.7 5.2 0.00 0.00 0.00 80 1012.5
20260503014504 57 291 1.7 5.2 0.00 0.00 0.00 80 1012.5
20260503013604 57 287 1.7 5.2 0.00 0.00 0.00 79 1012.6
20260503012705 57 289 1.7 5.2 0.00 0.00 0.00 79 1012.5
20260503011806 57 281 1.7 6.1 0.00 0.00 0.00 80 1012.5
20260503011118 58 293 0.9 4.3 0.00 0.00 0.00 80 1012.5
20260503010216 58 295 0.9 5.2 0.00 0.00 0.00 80 1012.6
20260503005617 58 283 0.9 5.2 0.00 0.00 0.00 80 1012.6
20260503004715 58 262 0.9 4.3 0.00 0.00 0.00 80 1012.6
20260503003605 58 286 1.7 5.2 0.00 0.00 0.00 81 1012.5
20260503002705 58 276 0.9 5.2 0.00 0.00 0.00 80 1012.5
20260503001805 58 292 0.9 3.5 0.00 0.00 0.00 81 1012.6
20260503001119 58 295 0.9 4.3 0.00 0.00 0.00 82 1012.6
20260503000005 58 288 2.6 6.1 0.00 0.00 0.00 84 1012.7
20260502235618 57 295 2.6 6.1 0.00 0.00 0.00 83 1012.7
20260502234715 58 282 1.7 5.2 0.00 0.00 0.00 82 1012.7
20260502233818 58 309 0.9 4.3 0.00 0.00 0.00 82 1012.8
20260502232704 58 289 0.9 6.1 0.00 0.00 0.00 82 1012.7
20260502231804 58 297 1.7 5.2 0.00 0.00 0.00 82 1012.8
20260502231115 58 291 2.6 7.0 0.00 0.00 0.00 82 1012.9
20260502230005 58 298 1.7 6.1 0.00 0.00 0.00 83 1013.0
20260502225405 58 304 1.7 5.2 0.00 0.00 0.00 83 1013.3
20260502224505 58 281 1.7 5.2 0.00 0.00 0.00 83 1013.4
20260502223604 58 276 1.7 6.1 0.00 0.00 0.00 83 1013.7
20260502222916 58 289 1.7 6.1 0.00 0.00 0.00 83 1013.8
20260502221805 59 278 1.7 7.0 0.00 0.00 0.00 83 1013.8
20260502221115 58 294 2.6 7.0 0.00 0.00 0.00 83 1013.9
20260502220218 59 304 1.7 7.0 0.00 0.00 0.00 82 1014.0
20260502215404 59 314 2.6 6.1 0.00 0.00 0.00 82 1014.1
20260502214505 59 286 2.6 7.8 0.00 0.00 0.00 80 1014.2
20260502213604 60 291 1.7 7.8 0.00 0.00 0.00 78 1014.3
20260502212705 61 296 1.7 7.0 0.00 0.00 0.00 78 1014.4
20260502211805 61 281 1.7 7.0 0.00 0.00 0.00 76 1014.4
20260502210905 62 294 0.0 5.2 0.00 0.00 0.00 75 1014.4
20260502210005 61 284 0.9 4.3 0.00 0.00 0.00 77 1014.5
20260502205404 61 263 1.7 7.0 0.00 0.00 0.00 77 1014.5
20260502204717 61 283 1.7 5.2 0.00 0.00 0.00 78 1014.5
20260502203814 61 289 1.7 7.0 0.00 0.00 0.00 78 1014.6
20260502202917 61 284 1.7 7.0 0.00 0.00 0.00 78 1014.7
20260502202014 61 307 1.7 6.1 0.00 0.00 0.00 76 1014.9
20260502200904 62 295 1.7 6.1 0.00 0.00 0.00 77 1015.0
20260502200219 61 287 1.7 6.1 0.00 0.00 0.00 77 1015.1
20260502195405 61 284 1.7 6.1 0.00 0.00 0.00 73 1015.1
20260502194504 62 273 0.9 5.2 0.00 0.00 0.00 72 1015.3